Location: Leipzig
(51.3397°N, 12.3731°E)
Time: 19:13:17
(UTC+01:00)

ISS - Pass Details

Date: 22 October 2025
Orbit: 414 x 421 km, 51.6° (Epoch: 07 November)

Event Time Altitude Azimuth Distance (km) Brightness Sun altitude
Exits shadow 07:08:58 - 265° (W) 1,664 -1.4 -6.5°
Reaches altitude 10° 07:09:21 10° 266° (W) 1,503 -1.6 -6.5°
Maximum altitude 07:12:44 85° 356° (N) 428 -3.7 -5.9°
Drops below altitude 10° 07:16:08 10° 84° (E) 1,509 0.6 -5.4°
Sets 07:18:14 0° 85° (E) 2,375 1.9 -5.1°
